Radiation Dose at Monitoring Post of Fukushima Daini Nuclear Power Station
Date,Time,MP-1(microSv/h),MP-2(microSv/h),MP-3(microSv/h),MP-4(microSv/h),MP-5(microSv/h),MP-6(microSv/h),MP-7(microSv/h),Wind Direction,Wind Velocity(m/s),Rain
2021/06/02,00:00,0.168,0.152,0.241,0.235,0.233,0.130,0.081,south,5.9,No
2021/06/02,00:10,0.166,0.153,0.243,0.236,0.234,0.130,0.080,south,6.1,No
2021/06/02,00:20,0.169,0.153,0.241,0.234,0.232,0.131,0.080,south,6.0,No
2021/06/02,00:30,0.166,0.154,0.243,0.235,0.234,0.130,0.081,south,6.6,No
2021/06/02,00:40,0.169,0.152,0.242,0.234,0.233,0.131,0.081,south,6.6,No
2021/06/02,00:50,0.167,0.153,0.242,0.235,0.234,0.131,0.080,south,5.0,No
2021/06/02,01:00,0.168,0.152,0.242,0.234,0.233,0.131,0.081,south,5.4,No
2021/06/02,01:10,0.167,0.153,0.243,0.234,0.235,0.130,0.081,south,4.9,No
2021/06/02,01:20,0.168,0.153,0.243,0.236,0.233,0.131,0.080,south,5.2,No
2021/06/02,01:30,0.168,0.152,0.241,0.234,0.235,0.131,0.081,south,5.6,No
2021/06/02,01:40,0.169,0.153,0.242,0.234,0.234,0.131,0.081,south,4.6,No
2021/06/02,01:50,0.168,0.152,0.242,0.235,0.236,0.131,0.081,south-southwest,4.9,No
2021/06/02,02:00,0.170,0.153,0.243,0.236,0.233,0.131,0.081,south-southwest,5.5,No
2021/06/02,02:10,0.167,0.152,0.242,0.235,0.235,0.131,0.081,south-southwest,5.6,No
2021/06/02,02:20,0.168,0.152,0.243,0.237,0.233,0.131,0.081,south-southwest,5.6,No
2021/06/02,02:30,0.167,0.151,0.242,0.235,0.235,0.130,0.081,south-southwest,5.9,No
2021/06/02,02:40,0.167,0.153,0.244,0.237,0.233,0.131,0.081,south-southwest,5.1,No
2021/06/02,02:50,0.167,0.153,0.242,0.234,0.235,0.131,0.080,south,5.7,No
2021/06/02,03:00,0.168,0.152,0.242,0.236,0.234,0.131,0.082,south,5.2,No
2021/06/02,03:10,0.166,0.153,0.243,0.235,0.235,0.131,0.080,south-southeast,4.8,No
2021/06/02,03:20,0.168,0.152,0.242,0.236,0.233,0.131,0.081,south,5.3,No
2021/06/02,03:30,0.167,0.153,0.242,0.236,0.235,0.130,0.082,south,5.0,No
2021/06/02,03:40,0.169,0.152,0.242,0.235,0.234,0.130,0.081,south,5.2,No
2021/06/02,03:50,0.167,0.151,0.244,0.235,0.235,0.130,0.081,south,4.9,No
2021/06/02,04:00,0.168,0.153,0.242,0.236,0.233,0.130,0.081,south,6.5,No
2021/06/02,04:10,0.167,0.153,0.242,0.233,0.235,0.131,0.081,south,4.9,No
2021/06/02,04:20,0.167,0.152,0.241,0.236,0.233,0.130,0.081,south-southwest,6.1,No
2021/06/02,04:30,0.167,0.152,0.243,0.235,0.235,0.130,0.081,south,5.2,No
2021/06/02,04:40,0.168,0.152,0.242,0.235,0.233,0.130,0.081,south,5.2,No
2021/06/02,04:50,0.167,0.153,0.243,0.235,0.237,0.130,0.081,south,4.3,No
2021/06/02,05:00,0.169,0.153,0.242,0.235,0.233,0.131,0.081,south-southwest,3.4,No
2021/06/02,05:10,0.167,0.153,0.242,0.234,0.235,0.130,0.080,south-southwest,3.4,No
2021/06/02,05:20,0.169,0.152,0.243,0.234,0.233,0.132,0.081,south-southwest,4.1,No
2021/06/02,05:30,0.167,0.152,0.241,0.237,0.234,0.130,0.081,south-southwest,3.3,No
2021/06/02,05:40,0.169,0.152,0.244,0.235,0.234,0.131,0.081,south-southwest,5.0,No
2021/06/02,05:50,0.167,0.152,0.243,0.234,0.234,0.131,0.081,south,3.6,No
2021/06/02,06:00,0.168,0.153,0.242,0.234,0.234,0.131,0.082,south,3.8,No
2021/06/02,06:10,0.167,0.152,0.241,0.235,0.232,0.131,0.081,south,3.8,No
2021/06/02,06:20,0.167,0.153,0.242,0.234,0.236,0.131,0.081,south-southwest,3.6,No
2021/06/02,06:30,0.167,0.151,0.242,0.234,0.232,0.130,0.081,southwest,3.8,No
2021/06/02,06:40,0.166,0.153,0.241,0.235,0.234,0.130,0.081,south,3.0,No
2021/06/02,06:50,0.169,0.152,0.244,0.233,0.233,0.131,0.081,south,3.6,No
2021/06/02,07:00,0.168,0.152,0.241,0.235,0.233,0.129,0.081,south,4.1,No
2021/06/02,07:10,0.168,0.152,0.242,0.236,0.234,0.130,0.080,south,2.7,No
2021/06/02,07:20,0.168,0.152,0.243,0.233,0.233,0.131,0.082,south,2.9,No
2021/06/02,07:30,0.166,0.154,0.240,0.236,0.231,0.130,0.081,south,3.8,No
2021/06/02,07:40,0.168,0.153,0.243,0.234,0.236,0.131,0.080,south,4.5,No
2021/06/02,07:50,0.167,0.152,0.242,0.234,0.233,0.131,0.081,south-southeast,4.0,No
2021/06/02,08:00,0.167,0.153,0.241,0.236,0.232,0.131,0.081,south-southeast,4.9,No
2021/06/02,08:10,0.168,0.153,0.243,0.234,0.235,0.131,0.081,south-southeast,5.6,No
2021/06/02,08:20,0.167,0.152,0.243,0.233,0.233,0.130,0.081,south-southeast,6.0,No
2021/06/02,08:30,0.167,0.153,0.241,0.236,0.233,0.131,0.081,south,4.5,No
2021/06/02,08:40,0.169,0.152,0.242,0.235,0.236,0.131,0.081,south-southeast,4.3,No
2021/06/02,08:50,0.167,0.152,0.243,0.232,0.233,0.130,0.081,south,3.9,No
2021/06/02,09:00,0.167,0.153,0.242,0.236,0.232,0.130,0.081,south,4.6,No
2021/06/02,09:10,0.168,0.152,0.240,0.236,0.231,0.132,0.081,south-southeast,5.5,No
2021/06/02,09:20,0.167,0.151,0.240,0.235,0.235,0.131,0.080,south-southeast,5.7,No
2021/06/02,09:30,0.167,0.153,0.241,0.233,0.235,0.131,0.080,south-southeast,4.7,No
2021/06/02,09:40,0.167,0.151,0.240,0.232,0.234,0.130,0.080,south-southeast,4.3,No
2021/06/02,09:50,0.166,0.151,0.240,0.233,0.233,0.130,0.079,south,5.0,No
2021/06/02,10:00,0.166,0.151,0.243,0.233,0.231,0.131,0.080,south-southeast,5.4,No
2021/06/02,10:10,0.166,0.152,0.242,0.233,0.231,0.131,0.081,south-southeast,5.3,No
2021/06/02,10:20,0.168,0.155,0.242,0.234,0.232,0.131,0.081,south,5.0,No
2021/06/02,10:30,0.169,0.152,0.242,0.236,0.234,0.131,0.080,south-southeast,5.2,No
2021/06/02,10:40,0.166,0.152,0.244,0.236,0.236,0.131,0.080,south-southeast,4.4,No
2021/06/02,10:50,0.167,0.153,0.243,0.233,0.234,0.131,0.082,south,5.2,No
2021/06/02,11:00,0.169,0.153,0.241,0.235,0.232,0.130,0.081,south,4.6,No
2021/06/02,11:10,0.168,0.153,0.245,0.238,0.234,0.131,0.081,south,3.1,No
2021/06/02,11:20,0.167,0.151,0.245,0.237,0.235,0.131,0.081,south-southeast,3.9,No
2021/06/02,11:30,0.166,0.151,0.242,0.235,0.234,0.132,0.081,south-southeast,4.5,No
2021/06/02,11:40,0.165,0.153,0.243,0.234,0.233,0.130,0.081,south,4.5,No
2021/06/02,11:50,0.166,0.153,0.243,0.234,0.233,0.130,0.081,south-southeast,5.1,No
2021/06/02,12:00,0.166,0.152,0.241,0.233,0.233,0.131,0.080,south-southeast,6.8,No
2021/06/02,12:10,0.168,0.152,0.241,0.233,0.232,0.131,0.081,south-southeast,8.1,No
2021/06/02,12:20,0.168,0.152,0.240,0.234,0.232,0.131,0.080,south-southeast,6.0,No
2021/06/02,12:30,0.168,0.151,0.242,0.233,0.232,0.131,0.080,southeast,7.1,No
2021/06/02,12:40,0.167,0.152,0.241,0.234,0.232,0.131,0.080,south-southeast,8.4,No
2021/06/02,12:50,0.167,0.151,0.241,0.234,0.232,0.132,0.080,south,8.6,No
2021/06/02,13:00,0.166,0.154,0.242,0.235,0.233,0.130,0.081,south,7.7,No
2021/06/02,13:10,0.166,0.154,0.242,0.235,0.234,0.132,0.082,south,8.8,No
2021/06/02,13:20,0.167,0.153,0.242,0.234,0.234,0.133,0.082,south-southeast,7.0,No
2021/06/02,13:30,0.167,0.153,0.244,0.234,0.233,0.131,0.080,south-southeast,8.5,No
2021/06/02,13:40,0.166,0.151,0.242,0.235,0.233,0.132,0.081,south-southeast,10.3,No
2021/06/02,13:50,0.167,0.153,0.242,0.234,0.233,0.130,0.081,south-southeast,10.0,No
2021/06/02,14:00,0.168,0.152,0.242,0.236,0.233,0.131,0.081,south-southeast,10.1,No
2021/06/02,14:10,0.166,0.152,0.242,0.238,0.233,0.132,0.081,south-southeast,11.2,No
2021/06/02,14:20,0.166,0.154,0.244,0.236,0.232,0.132,0.081,south-southeast,12.3,No
2021/06/02,14:30,0.169,0.154,0.245,0.236,0.234,0.131,0.081,south-southeast,12.4,No
2021/06/02,14:40,0.169,0.154,0.244,0.234,0.237,0.131,0.080,south-southeast,12.5,No
2021/06/02,14:50,0.168,0.153,0.244,0.238,0.234,0.131,0.082,south-southeast,10.4,No
2021/06/02,15:00,0.166,0.153,0.242,0.238,0.232,0.131,0.081,south,9.8,No
2021/06/02,15:10,0.168,0.153,0.246,0.235,0.235,0.130,0.081,south,9.8,No
2021/06/02,15:20,0.169,0.152,0.245,0.236,0.237,0.132,0.081,south,11.5,No
2021/06/02,15:30,0.167,0.154,0.242,0.239,0.235,0.132,0.080,south,10.4,No
2021/06/02,15:40,0.167,0.153,0.242,0.237,0.232,0.132,0.081,south,11.2,No
2021/06/02,15:50,0.167,0.153,0.242,0.234,0.232,0.131,0.081,south-southeast,8.9,No
2021/06/02,16:00,0.169,0.152,0.246,0.234,0.232,0.130,0.080,south,10.4,No
2021/06/02,16:10,0.169,0.154,0.244,0.239,0.232,0.131,0.082,south,8.7,No
2021/06/02,16:20,0.168,0.153,0.244,0.236,0.231,0.131,0.082,south,10.1,No
2021/06/02,16:30,0.167,0.152,0.245,0.235,0.236,0.130,0.081,south-southeast,9.6,No
2021/06/02,16:40,0.166,0.154,0.245,0.239,0.236,0.131,0.081,south,9.8,No
2021/06/02,16:50,0.168,0.153,0.244,0.237,0.235,0.131,0.081,south,8.6,No
2021/06/02,17:00,0.169,0.152,0.243,0.236,0.233,0.132,0.081,south,8.2,No
2021/06/02,17:10,0.168,0.154,0.245,0.238,0.231,0.132,0.081,south,6.4,No
2021/06/02,17:20,0.167,0.153,0.244,0.237,0.232,0.131,0.082,south,7.0,No
2021/06/02,17:30,0.169,0.152,0.244,0.235,0.234,0.132,0.081,south,7.0,No
2021/06/02,17:40,0.169,0.154,0.245,0.237,0.238,0.131,0.082,south,7.0,No
2021/06/02,17:50,0.167,0.153,0.242,0.238,0.235,0.131,0.080,south,6.6,No
2021/06/02,18:00,0.167,0.153,0.244,0.236,0.233,0.132,0.081,south,5.2,No
2021/06/02,18:10,0.170,0.154,0.244,0.239,0.233,0.131,0.080,south,6.7,No
2021/06/02,18:20,0.169,0.153,0.243,0.237,0.237,0.131,0.080,south-southwest,8.1,No
2021/06/02,18:30,0.167,0.153,0.245,0.236,0.235,0.132,0.082,south,8.7,No
2021/06/02,18:40,0.168,0.154,0.244,0.239,0.236,0.132,0.081,south,8.1,No
2021/06/02,18:50,0.168,0.153,0.243,0.236,0.236,0.131,0.080,south,8.9,No
2021/06/02,19:00,0.168,0.154,0.245,0.238,0.233,0.132,0.081,south-southwest,8.7,No
2021/06/02,19:10,0.168,0.152,0.244,0.236,0.236,0.131,0.080,south,7.8,No
2021/06/02,19:20,0.168,0.153,0.245,0.236,0.236,0.131,0.081,south,7.6,No
2021/06/02,19:30,0.168,0.153,0.245,0.239,0.234,0.132,0.081,south,6.9,No
2021/06/02,19:40,0.169,0.154,0.245,0.237,0.236,0.131,0.082,south-southwest,6.7,No
2021/06/02,19:50,0.168,0.154,0.246,0.238,0.234,0.132,0.081,south,5.4,No
2021/06/02,20:00,0.169,0.153,0.244,0.236,0.236,0.132,0.080,south-southwest,5.3,No
2021/06/02,20:10,0.169,0.154,0.245,0.239,0.235,0.131,0.081,south-southwest,5.6,No
2021/06/02,20:20,0.168,0.154,0.243,0.237,0.235,0.131,0.081,south-southwest,4.3,No
2021/06/02,20:30,0.168,0.154,0.246,0.236,0.235,0.131,0.082,south,4.9,No
2021/06/02,20:40,0.167,0.154,0.243,0.239,0.235,0.132,0.081,south-southwest,4.9,No
2021/06/02,20:50,0.170,0.154,0.246,0.236,0.235,0.131,0.081,south,5.3,No
2021/06/02,21:00,0.167,0.152,0.242,0.238,0.233,0.131,0.081,south,6.5,No
2021/06/02,21:10,0.168,0.154,0.244,0.236,0.237,0.130,0.082,south,6.0,No
2021/06/02,21:20,0.168,0.153,0.243,0.240,0.234,0.131,0.081,south,5.2,No
2021/06/02,21:30,0.169,0.155,0.245,0.235,0.236,0.132,0.081,south,6.2,No
2021/06/02,21:40,0.168,0.153,0.244,0.238,0.234,0.131,0.081,south,5.9,No
2021/06/02,21:50,0.168,0.154,0.246,0.235,0.234,0.132,0.081,south,6.1,No
2021/06/02,22:00,0.169,0.153,0.245,0.238,0.236,0.130,0.081,south-southwest,5.8,No
2021/06/02,22:10,0.168,0.154,0.244,0.237,0.235,0.132,0.081,south-southwest,5.9,No
2021/06/02,22:20,0.169,0.154,0.244,0.238,0.236,0.130,0.082,south-southwest,5.7,No
2021/06/02,22:30,0.168,0.154,0.244,0.236,0.234,0.133,0.081,south-southwest,5.7,No
2021/06/02,22:40,0.170,0.153,0.246,0.238,0.237,0.131,0.082,south-southwest,6.6,No
2021/06/02,22:50,0.168,0.154,0.245,0.237,0.233,0.131,0.081,south-southwest,6.7,No
2021/06/02,23:00,0.169,0.153,0.244,0.237,0.236,0.132,0.082,south-southwest,5.8,No
2021/06/02,23:10,0.168,0.153,0.245,0.239,0.234,0.131,0.081,south-southwest,4.8,No
2021/06/02,23:20,0.169,0.153,0.245,0.237,0.237,0.132,0.081,south-southwest,5.2,No
2021/06/02,23:30,0.169,0.153,0.244,0.237,0.236,0.131,0.081,south-southwest,5.5,No
2021/06/02,23:40,0.169,0.154,0.245,0.235,0.235,0.131,0.081,south-southwest,5.1,No
2021/06/02,23:50,0.169,0.153,0.245,0.239,0.236,0.132,0.082,south-southwest,5.0,No
